Theta_e
354 360 363 365 364 365 365 366 364 364 363 362 361 362 361 360 361 362 362 362 363 362 359 357 357 356 355 355 355 355 356 356 355 355 354 354 353 351 350 350 349 345 349
357 361 362 364 364 365 365 365 364 364 363 363 363 362 361 360 361 362 362 362 362 361 358 356 354 354 354 354 354 354 354 355 355 354 352 353 353 352 350 351 348 347 348
357 362 361 363 364 364 364 364 363 363 363 363 362 361 361 361 362 362 361 362 361 358 356 354 353 354 354 354 354 354 354 355 354 353 352 349 347 350 349 349 351 349 349
359 362 360 363 363 364 363 362 361 362 362 362 362 362 361 361 361 361 361 360 358 356 353 353 353 353 353 355 355 355 355 355 354 351 347 347 346 349 349 349 348 348 349
358 361 361 362 363 363 361 361 360 360 361 361 361 361 361 361 361 360 361 360 357 354 352 353 354 356 356 354 355 355 355 354 353 353 351 350 350 349 350 350 348 348 348
357 359 361 361 361 362 361 360 360 360 360 360 361 361 360 360 360 360 360 360 358 354 352 354 357 356 355 355 355 354 354 352 347 345 346 346 351 354 352 351 351 348 349
356 359 360 361 361 361 361 361 360 360 359 359 360 360 360 360 360 360 359 359 357 355 354 355 356 356 356 354 353 354 352 346 342 342 343 347 347 349 354 353 353 352 349
355 358 359 360 360 360 360 360 359 358 358 358 359 359 359 359 359 358 359 358 357 356 355 355 355 354 354 354 354 353 351 345 339 340 339 344 352 349 352 356 356 353 352
356 357 357 356 358 360 359 359 358 358 357 357 357 357 358 358 357 357 357 357 356 355 354 354 354 354 353 353 353 352 350 345 340 337 336 336 345 349 351 357 357 355 353
355 356 356 355 353 353 356 359 358 357 357 356 356 356 356 357 357 357 355 355 356 355 353 352 352 351 351 351 350 349 348 344 339 337 335 335 339 339 349 356 357 358 356
352 355 357 356 355 353 352 355 358 358 358 356 357 357 354 351 354 356 354 355 356 355 353 352 351 349 348 347 348 347 343 336 335 332 332 340 338 340 348 355 357 358 357
349 352 354 356 355 353 351 355 355 354 355 355 355 356 353 354 355 353 354 354 355 355 354 353 352 350 346 337 336 337 332 334 334 332 332 339 338 340 343 354 358 358 357
350 352 354 357 357 353 350 353 354 354 355 356 357 357 356 354 354 352 351 352 353 353 350 350 349 347 345 343 338 336 334 333 331 331 334 340 339 342 344 349 352 357 358
349 351 354 356 356 356 351 351 352 352 354 353 354 357 355 353 353 352 351 351 353 351 350 351 347 348 348 346 343 340 337 335 332 331 333 338 340 340 344 348 351 355 357
348 350 352 356 357 356 354 352 353 351 353 353 354 356 355 353 352 353 352 352 351 351 350 350 349 348 347 346 344 341 338 337 337 334 332 339 340 343 343 347 351 354 357
350 350 352 354 357 357 355 355 354 354 354 355 354 355 356 354 352 352 352 351 351 351 351 350 348 348 347 347 345 344 342 341 339 337 334 334 339 341 344 348 352 355 358
348 352 354 354 358 357 356 356 356 355 355 355 355 359 358 356 352 352 353 352 352 353 353 352 351 351 348 348 347 346 345 344 342 340 339 336 334 340 343 345 349 353 356
323 339 354 352 353 355 356 355 355 356 356 356 356 357 357 356 355 352 353 353 355 354 352 351 350 348 348 347 347 347 347 346 344 343 341 340 339 338 340 346 347 351 355
329 336 347 353 350 352 353 355 354 357 356 356 357 356 357 357 356 354 354 355 357 354 354 352 351 349 347 347 347 347 347 346 346 344 344 343 344 342 340 340 346 348 351
335 344 348 349 349 349 350 352 353 353 354 355 356 356 358 358 357 355 354 353 354 352 350 349 349 350 349 348 347 345 347 347 346 344 344 343 343 343 343 346 344 344 347
336 342 345 343 344 343 343 345 347 348 352 354 356 355 354 354 354 354 353 353 353 349 349 349 347 345 344 346 341 341 342 346 345 344 344 343 343 343 344 344 346 344 344
331 334 335 337 340 344 342 340 340 338 337 342 343 347 349 347 347 347 345 340 342 337 342 342 342 338 337 341 336 335 328 331 338 343 343 341 342 343 343 344 346 348 349
327 330 332 333 335 337 335 331 331 331 331 331 331 332 337 338 339 341 340 339 339 339 331 338 339 339 331 334 340 334 326 322 329 336 342 341 343 342 344 344 346 349 352
325 326 328 330 332 331 333 333 336 327 323 325 329 331 333 334 334 335 337 337 339 333 336 334 334 337 337 330 332 338 339 336 326 323 333 340 342 342 344 342 342 346 346
321 323 326 327 325 326 327 328 326 328 326 325 327 329 331 331 331 330 333 335 336 334 337 337 337 337 333 331 327 328 335 335 335 328 324 328 335 339 341 342 342 342 346
319 320 320 321 320 321 323 324 325 324 323 322 323 322 322 323 325 327 329 331 333 333 333 333 336 337 335 333 330 331 328 326 325 330 331 328 329 335 338 341 343 343 345
Wind_Speed
13 17 16 14 12 13 15 16 18 19 18 18 18 19 18 18 18 16 16 13 12 12 12 11 11 11 12 13 13 13 11 11 11 10 9 9 9 9 8 8 7 6 7
18 19 17 14 13 13 15 16 18 19 18 18 18 19 18 18 17 15 14 13 11 12 11 10 10 11 12 12 13 12 11 10 9 9 8 8 8 8 8 7 5 7 6
19 17 18 15 13 12 13 15 17 17 17 18 18 18 18 18 16 14 13 11 10 10 10 10 10 11 11 12 12 11 10 9 8 7 6 4 7 7 9 8 7 7 6
17 16 16 15 14 12 13 14 16 17 17 17 17 17 17 16 15 13 12 11 10 10 10 10 10 10 11 11 11 10 9 9 8 7 6 4 5 8 8 8 8 7 7
18 15 16 16 16 14 13 12 15 17 17 17 17 17 16 14 13 12 12 11 11 10 10 11 10 9 9 9 8 8 7 7 6 7 5 5 4 8 9 8 9 9 8
17 16 17 16 16 16 16 13 13 14 16 16 16 16 15 15 13 12 11 10 10 10 10 10 8 7 7 7 6 6 5 5 5 4 4 5 7 6 10 10 8 8 9
18 16 17 16 16 17 18 17 15 15 15 15 15 16 15 14 13 12 11 10 9 8 9 9 8 6 6 6 7 6 5 5 7 4 4 5 8 8 11 11 10 9 9
16 16 16 15 16 16 17 18 17 16 16 15 15 15 15 14 13 12 11 10 8 8 8 8 7 7 6 6 6 6 5 6 6 5 5 4 3 9 11 11 10 10 10
15 14 14 15 14 14 15 15 16 16 16 16 15 14 14 14 13 12 11 10 9 8 7 7 6 6 7 7 6 6 6 6 8 5 7 5 3 10 12 12 11 11 11
14 14 13 12 13 13 13 13 15 15 14 13 13 13 12 11 10 10 9 8 8 7 7 6 6 6 7 7 7 7 7 8 10 7 6 6 5 9 13 12 11 10 11
11 13 13 13 12 12 12 11 10 11 10 10 10 9 9 9 10 10 8 6 7 6 6 6 6 7 7 8 8 7 7 6 7 6 6 4 8 11 11 12 11 11 12
15 14 13 13 13 12 9 10 10 9 8 8 8 9 7 6 7 7 6 8 7 7 7 6 6 6 7 7 5 5 5 6 6 7 6 5 9 11 12 10 10 12 13
13 12 13 12 11 13 11 8 6 6 6 7 9 8 7 6 6 7 5 6 7 7 6 7 7 6 6 6 6 6 7 6 5 6 7 6 10 11 12 11 11 14 14
12 13 13 13 12 11 8 8 8 7 7 6 7 9 6 5 6 6 5 6 6 6 7 7 6 7 9 9 9 9 9 8 6 5 7 9 12 12 13 13 13 13 15
13 13 15 14 13 11 11 8 8 8 7 7 7 8 7 7 6 6 6 6 6 6 6 7 7 7 9 9 10 10 11 11 10 7 6 10 13 14 15 15 15 16 17
13 14 14 15 14 12 11 11 8 8 8 8 6 7 10 7 6 7 7 7 7 7 7 6 7 7 8 9 9 11 11 11 11 11 9 9 12 14 17 16 16 16 16
13 10 12 11 11 13 13 11 8 7 8 7 7 10 10 10 9 8 7 8 8 7 8 8 9 8 9 9 11 11 11 12 12 12 10 10 10 13 16 16 17 17 16
6 9 8 10 12 13 11 9 7 7 7 7 6 7 10 10 11 9 8 8 7 7 7 7 8 8 9 9 10 10 10 11 13 12 11 10 10 10 10 16 17 17 17
2 6 9 11 12 13 11 9 8 8 6 5 6 6 8 9 10 7 7 7 7 7 8 8 8 7 9 9 11 10 10 11 11 11 14 13 13 12 10 12 14 16 17
5 6 9 9 10 10 7 6 5 4 4 5 5 6 8 7 8 7 6 6 6 7 7 8 9 9 9 11 11 12 11 11 11 11 13 12 14 15 12 12 10 11 16
4 6 7 8 8 8 8 7 5 5 3 4 4 6 6 5 6 7 6 6 6 7 8 8 9 10 9 9 9 11 11 11 13 12 11 12 14 15 14 12 9 9 9
8 8 7 7 8 8 6 3 2 4 3 3 2 3 4 5 5 6 6 5 5 5 7 8 8 8 9 7 7 11 9 10 10 11 11 11 14 12 13 15 12 13 12
9 9 10 9 10 9 10 7 5 4 4 3 3 4 5 5 5 6 7 6 6 6 6 7 8 9 9 9 9 6 6 10 10 9 8 10 12 11 11 12 12 12 13
8 11 11 10 11 9 7 7 6 4 4 3 3 2 3 4 6 6 6 6 7 6 7 8 7 8 8 10 9 9 15 13 8 10 11 7 9 12 13 11 10 11 12
10 8 8 9 9 8 6 7 5 5 5 5 5 7 6 6 6 7 7 8 9 8 9 10 10 10 8 10 10 10 11 11 11 11 12 11 14 12 13 12 11 10 10
9 9 9 9 10 10 10 10 8 6 5 4 4 5 6 7 7 9 9 9 10 10 11 11 11 12 11 10 10 10 11 10 11 11 12 12 15 15 13 11 9 8 7
Wind_Direction
164 152 156 158 148 143 143 143 138 136 139 142 144 143 140 132 131 137 137 134 133 130 132 131 128 128 127 125 125 123 125 128 128 123 124 132 134 136 129 129 139 130 130
152 151 154 155 152 145 141 141 134 135 138 140 138 137 137 132 136 140 139 140 136 136 137 138 137 135 133 131 132 130 132 136 134 133 132 150 147 167 143 140 152 114 141
148 150 154 152 151 145 139 132 130 131 133 135 135 137 136 136 140 143 139 137 138 139 141 147 145 142 140 139 138 136 141 145 144 147 144 126 141 157 161 158 159 159 154
144 148 154 150 149 150 143 137 133 132 133 133 134 136 135 139 143 142 137 141 146 150 156 157 154 153 148 148 150 149 152 154 154 156 182 164 166 165 175 173 170 171 169
145 149 151 153 150 153 148 141 138 136 137 139 139 138 138 143 142 141 143 148 155 160 165 165 165 162 163 165 163 162 169 168 176 206 210 204 207 162 194 187 181 185 189
147 154 147 152 152 152 150 150 142 139 140 142 143 142 145 146 144 145 148 152 162 166 170 172 169 175 178 176 176 183 188 191 220 236 246 233 239 156 204 206 209 203 196
154 158 157 154 154 157 156 156 152 148 148 148 148 149 151 150 148 148 151 159 168 171 176 179 180 188 190 189 201 206 210 223 258 261 276 258 233 202 214 216 218 215 210
156 159 158 159 160 162 163 161 158 157 156 156 156 157 155 154 153 154 157 163 170 176 183 188 193 202 211 217 222 227 235 249 251 278 276 276 253 221 224 219 222 227 222
159 161 166 170 169 167 169 167 164 163 162 161 160 161 160 160 160 162 167 172 177 182 190 197 206 217 229 236 241 248 254 265 275 267 268 258 195 234 240 233 227 233 232
161 165 171 175 176 180 179 176 170 170 166 164 164 163 162 163 167 172 176 185 187 191 198 208 222 236 247 253 259 270 279 275 261 270 264 265 269 264 252 243 241 235 234
173 172 177 178 180 186 186 182 179 176 168 164 164 160 158 185 186 184 196 173 202 207 215 228 237 249 263 269 274 274 276 264 274 272 279 304 296 296 286 252 245 241 235
186 189 184 183 183 180 183 183 188 184 186 185 188 182 192 194 200 212 210 211 220 221 227 233 246 261 260 267 266 257 267 284 275 273 276 309 296 293 289 280 252 250 243
198 191 192 185 186 187 185 183 181 185 181 187 193 192 193 196 202 208 217 215 224 212 241 226 237 241 253 267 273 274 272 269 275 281 285 299 283 283 278 266 258 247 241
203 205 193 194 191 196 192 189 184 189 189 195 196 198 201 208 210 225 228 227 226 222 235 234 237 244 236 239 251 262 264 268 266 274 276 258 263 268 270 265 253 247 239
214 207 206 196 196 194 197 193 192 192 192 196 197 204 211 218 225 230 237 243 253 252 244 254 259 257 268 262 262 258 262 260 255 256 259 249 247 252 252 257 254 244 237
224 213 206 201 198 195 201 198 195 193 190 198 202 216 213 221 229 234 237 237 239 243 252 257 269 273 273 275 269 268 266 270 266 263 263 264 238 240 248 246 246 248 242
240 218 210 206 200 203 202 199 198 195 202 206 206 219 216 215 226 236 236 240 245 248 252 254 262 267 268 271 272 275 272 263 261 259 261 259 262 232 240 250 251 244 241
246 243 211 194 193 202 200 193 198 199 210 221 219 219 221 224 226 228 235 241 248 250 251 253 252 264 269 272 277 272 270 268 265 268 260 260 260 269 240 226 240 247 244
166 198 205 186 187 188 187 184 191 198 207 210 225 229 233 230 233 229 240 253 249 254 251 260 261 262 269 271 269 269 265 264 267 260 260 256 256 251 255 250 234 233 237
179 171 179 172 176 169 161 168 181 197 202 208 221 224 223 224 228 230 248 256 256 260 264 265 261 265 260 278 282 281 279 270 264 263 263 261 260 252 243 249 248 242 231
153 170 177 155 156 149 157 161 164 177 179 208 222 227 228 231 231 230 240 247 243 250 260 268 267 264 269 269 277 275 268 257 259 257 253 250 249 250 251 235 237 248 244
156 152 140 142 151 164 163 145 138 125 121 117 118 136 174 186 194 207 221 234 243 260 265 270 270 274 269 263 269 295 290 287 256 246 250 247 250 249 250 242 238 237 238
158 142 132 132 140 138 129 120 101 104 106 157 176 188 197 202 212 221 225 237 239 244 260 256 259 264 271 273 253 245 288 264 302 295 250 258 256 251 245 251 238 222 236
143 130 129 136 128 124 136 149 154 148 158 172 186 189 212 244 259 256 258 251 251 262 266 268 265 265 270 276 277 249 255 266 270 286 267 273 269 265 254 248 244 234 225
128 118 97 90 76 76 77 59 49 38 19 8 352 333 310 292 287 281 278 277 266 255 249 251 253 253 257 262 268 267 260 260 261 262 274 262 270 260 259 252 249 244 231
101 98 91 84 64 55 55 51 51 37 357 332 325 305 304 307 301 288 287 273 267 270 269 267 258 251 253 258 262 263 262 260 263 251 257 256 257 272 270 262 247 239 236